Flag for Switzerland Weather past 2 weeks in Langenthal, Bern, Switzerland

Now
40 °F

Quite cool.


Feels Like: 40 °F
Forecast: 38 / 61 °F
Wind: 1 mph from Southwest

Location: Wynau

Current Time: Sep 24, 2014 at 7:32:12 AM

Latest Report: Sep 24, 2014 at 6:00 AM


Visibility: N/A

Pressure: 30.05 "Hg

Humidity: 100%

Dew point: 40 °F

Location of LangenthalLocation

Historic Weather in Langenthal — Graph

°F

Langenthal temperature yesterday

Maximum temperature yesterday: 63 °F (at 5:00 PM)
Minimum temperature yesterday: 41 °F (at 6:00 AM)
Average temperature yesterday: 51 °F

Past Weeks' High & Low Weather Summary

 TemperatureHumidityPressure
High77 °F (Sep 20, 3:00 PM)100% (Sep 17, 3:00 AM)30.21 "Hg (Sep 17, 3:00 AM)
Low40 °F (Sep 24, 5:00 AM)44% (Sep 23, 2:00 PM)29.80 "Hg (Sep 17, 6:00 PM)
Average60 °F83%30.01 "Hg
* Reported Sep 9 6:00 AM — Sep 24 6:00 AM, Langenthal, Weather by CustomWeather, © 2014

Note: Actual official high and low records may vary slightly from our data, if they occured in-between our weather recording intervals... More about our weather records

Advertising

Langenthal weather history for previous 24 hours

 ConditionsComfort  
Time TempWeatherWind HumidityBarometerVisibility
6:00 AM
Sep 24
40 °FQuite cool.1 mph100%30.05 "HgN/A
5:00 AM40 °FQuite cool.1 mph100%30.06 "HgN/A
4:00 AM41 °FQuite cool.1 mph98%30.06 "HgN/A
3:00 AM42 °FQuite cool.1 mph97%30.08 "HgN/A
2:00 AM42 °FQuite cool.1 mph99%30.09 "HgN/A
1:00 AM44 °FQuite cool.1 mph99%30.09 "HgN/A
12:00 AM44 °FQuite cool.1 mph97%30.09 "HgN/A
11:00 PM
Sep 23
44 °FQuite cool.No wind96%30.09 "HgN/A
10:00 PM46 °FCool.1 mph93%30.08 "HgN/A
9:00 PM49 °FCool.1 mph90%30.06 "HgN/A
8:00 PM51 °FCool.1 mph79%30.04 "HgN/A
7:00 PM57 °FCool.3 mph62%30.01 "HgN/A
6:00 PM62 °FRefreshingly cool.9 mph45%29.99 "HgN/A
5:00 PM63 °FMild.10 mph45%29.99 "HgN/A
4:00 PM63 °FMild.10 mph47%30.01 "HgN/A
3:00 PM60 °FRefreshingly cool.7 mph51%30.03 "HgN/A
2:00 PM60 °FRefreshingly cool.13 mph44%30.06 "HgN/A
1:00 PM58 °FRefreshingly cool.15 mph49%30.08 "HgN/A
12:00 PM56 °FRefreshingly cool.15 mph60%30.11 "HgN/A
11:00 AM52 °FCool.17 mph62%30.15 "HgN/A
10:00 AM50 °FCool.10 mph77%30.18 "HgN/A
9:00 AM46 °FCool.5 mph82%30.21 "HgN/A
8:00 AM41 °FQuite cool.3 mph92%30.21 "HgN/A
7:00 AM42 °FQuite cool.2 mph87%30.19 "HgN/A
Weather by CustomWeather, © 2014

See weather overviewHow to use our weather pages